timestamp,wind_dir_avg,wind_spd_max_dir,wind_spd_avg,wind_spd_gust,battery_voltage,lat,long
2019-02-24 00:00:00+00:00,322.0,330.0,6.43,7.6,,47.59359,-54.27349
2019-02-24 00:10:00+00:00,323.0,315.0,7.04,9.26,,47.59359,-54.27349
2019-02-24 00:20:00+00:00,318.0,320.0,8.34,10.35,,47.59359,-54.27349
2019-02-24 00:30:00+00:00,331.0,329.0,6.18,8.45,,47.59359,-54.27349
2019-02-24 00:40:00+00:00,348.0,340.0,5.22,7.27,,47.59359,-54.27349
2019-02-24 00:50:00+00:00,356.0,335.0,6.19,7.53,,47.59359,-54.27349
2019-02-24 01:00:00+00:00,345.0,341.0,6.61,7.65,,47.59359,-54.27349
2019-02-24 01:10:00+00:00,325.0,328.0,6.83,7.94,,47.59359,-54.27349
2019-02-24 01:20:00+00:00,330.0,320.0,6.98,9.14,,47.59359,-54.27349
2019-02-24 01:30:00+00:00,356.0,350.0,5.18,7.33,,47.59359,-54.27349
2019-02-24 01:40:00+00:00,332.0,332.0,7.3,8.66,,47.59359,-54.27349
2019-02-24 01:50:00+00:00,325.0,317.0,7.29,9.75,,47.59359,-54.27349
2019-02-24 02:00:00+00:00,345.0,316.0,5.63,8.15,,47.59359,-54.27349
2019-02-24 02:10:00+00:00,355.0,11.0,5.97,7.88,,47.59359,-54.27349
2019-02-24 02:20:00+00:00,348.0,345.0,5.49,7.24,,47.59359,-54.27349
2019-02-24 02:30:00+00:00,347.0,342.0,5.32,6.69,,47.59359,-54.27349
2019-02-24 02:40:00+00:00,342.0,332.0,6.05,8.3,,47.59359,-54.27349
2019-02-24 02:50:00+00:00,323.0,320.0,6.68,9.02,,47.59359,-54.27349
2019-02-24 03:00:00+00:00,325.0,324.0,7.35,8.98,,47.59359,-54.27349
2019-02-24 03:10:00+00:00,336.0,337.0,5.79,8.0,,47.59359,-54.27349
2019-02-24 03:20:00+00:00,323.0,315.0,7.11,8.99,,47.59359,-54.27349
2019-02-24 03:30:00+00:00,333.0,334.0,6.76,8.08,,47.59359,-54.27349
2019-02-24 03:40:00+00:00,335.0,327.0,5.3,6.98,,47.59359,-54.27349
2019-02-24 03:50:00+00:00,328.0,324.0,5.19,6.59,,47.59359,-54.27349
2019-02-24 04:00:00+00:00,310.0,306.0,6.57,8.23,,47.59359,-54.27349
2019-02-24 04:10:00+00:00,317.0,323.0,4.81,6.02,,47.59359,-54.27349
2019-02-24 04:20:00+00:00,315.0,322.0,5.39,6.71,,47.59359,-54.27349
2019-02-24 04:30:00+00:00,322.0,341.0,5.29,6.17,,47.59359,-54.27349
2019-02-24 04:40:00+00:00,323.0,322.0,6.32,7.95,,47.59359,-54.27349
2019-02-24 04:50:00+00:00,324.0,325.0,6.37,7.33,,47.59359,-54.27349
2019-02-24 05:00:00+00:00,327.0,335.0,6.56,8.34,,47.59359,-54.27349
2019-02-24 05:10:00+00:00,316.0,320.0,7.93,9.37,,47.59359,-54.27349
2019-02-24 05:20:00+00:00,328.0,335.0,6.35,7.55,,47.59359,-54.27349
2019-02-24 05:30:00+00:00,332.0,324.0,7.26,8.66,,47.59359,-54.27349
2019-02-24 05:40:00+00:00,323.0,319.0,7.92,9.36,,47.59359,-54.27349
2019-02-24 05:50:00+00:00,325.0,329.0,7.59,8.74,,47.59359,-54.27349
2019-02-24 06:00:00+00:00,324.0,315.0,7.99,9.54,,47.59359,-54.27349
2019-02-24 06:10:00+00:00,322.0,317.0,8.01,9.49,,47.59359,-54.27349
2019-02-24 06:20:00+00:00,325.0,317.0,7.79,9.68,,47.59359,-54.27349
2019-02-24 06:30:00+00:00,322.0,316.0,6.71,8.49,,47.59359,-54.27349
2019-02-24 06:40:00+00:00,332.0,331.0,6.85,8.34,,47.59359,-54.27349
2019-02-24 06:50:00+00:00,339.0,325.0,6.68,7.98,,47.59359,-54.27349
2019-02-24 07:00:00+00:00,344.0,342.0,6.56,7.94,,47.59359,-54.27349
2019-02-24 07:10:00+00:00,332.0,321.0,5.88,7.21,,47.59359,-54.27349
2019-02-24 07:20:00+00:00,313.0,314.0,5.74,7.15,,47.59359,-54.27349
2019-02-24 07:30:00+00:00,335.0,322.0,5.39,7.24,,47.59359,-54.27349
2019-02-24 07:40:00+00:00,323.0,313.0,6.97,9.4,,47.59359,-54.27349
2019-02-24 07:50:00+00:00,311.0,307.0,4.9,6.92,,47.59359,-54.27349
2019-02-24 08:00:00+00:00,320.0,317.0,6.47,7.54,,47.59359,-54.27349
2019-02-24 08:10:00+00:00,305.0,312.0,7.42,9.06,,47.59359,-54.27349
2019-02-24 08:20:00+00:00,300.0,304.0,7.03,8.34,,47.59359,-54.27349
2019-02-24 08:30:00+00:00,318.0,304.0,5.27,7.58,,47.59359,-54.27349
2019-02-24 08:40:00+00:00,306.0,309.0,7.62,8.77,,47.59359,-54.27349
2019-02-24 08:50:00+00:00,314.0,317.0,7.88,9.38,,47.59359,-54.27349
2019-02-24 09:00:00+00:00,316.0,313.0,8.26,9.9,,47.59359,-54.27349
2019-02-24 09:10:00+00:00,331.0,327.0,7.11,8.5,,47.59359,-54.27349
2019-02-24 09:20:00+00:00,308.0,310.0,7.15,8.64,,47.59359,-54.27349
2019-02-24 09:30:00+00:00,326.0,344.0,5.69,7.06,,47.59359,-54.27349
2019-02-24 09:40:00+00:00,311.0,312.0,6.09,8.91,,47.59359,-54.27349
2019-02-24 09:50:00+00:00,311.0,297.0,5.82,7.68,,47.59359,-54.27349
2019-02-24 10:00:00+00:00,321.0,320.0,5.21,7.24,,47.59359,-54.27349
2019-02-24 10:10:00+00:00,317.0,317.0,8.52,9.78,,47.59359,-54.27349
2019-02-24 10:20:00+00:00,326.0,330.0,6.79,8.27,,47.59359,-54.27349
2019-02-24 10:30:00+00:00,315.0,317.0,7.14,8.97,,47.59359,-54.27349
2019-02-24 10:40:00+00:00,312.0,316.0,7.1,8.32,,47.59359,-54.27349
2019-02-24 10:50:00+00:00,310.0,304.0,5.2,6.56,,47.59359,-54.27349
2019-02-24 11:00:00+00:00,302.0,304.0,6.78,7.81,,47.59359,-54.27349
2019-02-24 11:10:00+00:00,305.0,312.0,6.34,8.74,,47.59359,-54.27349
2019-02-24 11:20:00+00:00,311.0,314.0,6.73,9.61,,47.59359,-54.27349
2019-02-24 11:30:00+00:00,312.0,317.0,6.9,8.55,,47.59359,-54.27349
2019-02-24 11:40:00+00:00,322.0,321.0,6.56,8.01,,47.59359,-54.27349
2019-02-24 11:50:00+00:00,344.0,346.0,7.39,9.23,,47.59359,-54.27349
2019-02-24 12:00:00+00:00,337.0,337.0,10.16,12.74,,47.59359,-54.27349
2019-02-24 12:10:00+00:00,332.0,330.0,9.03,12.12,,47.59359,-54.27349
2019-02-24 12:20:00+00:00,333.0,328.0,7.32,9.67,,47.59359,-54.27349
2019-02-24 12:30:00+00:00,328.0,324.0,8.22,10.54,,47.59359,-54.27349
2019-02-24 12:40:00+00:00,325.0,332.0,8.49,11.81,,47.59359,-54.27349
2019-02-24 12:50:00+00:00,329.0,326.0,11.31,13.56,,47.59359,-54.27349
2019-02-24 13:00:00+00:00,333.0,327.0,9.39,11.46,,47.59359,-54.27349
2019-02-24 13:10:00+00:00,327.0,329.0,9.85,12.54,,47.59359,-54.27349
2019-02-24 13:20:00+00:00,336.0,330.0,9.53,11.93,,47.59359,-54.27349
2019-02-24 13:30:00+00:00,328.0,333.0,9.3,11.28,,47.59359,-54.27349
2019-02-24 13:40:00+00:00,322.0,326.0,9.25,10.92,,47.59359,-54.27349
2019-02-24 13:50:00+00:00,335.0,329.0,10.37,12.79,,47.59359,-54.27349
2019-02-24 14:00:00+00:00,335.0,330.0,9.86,12.73,,47.59359,-54.27349
2019-02-24 14:10:00+00:00,340.0,343.0,9.13,11.38,,47.59359,-54.27349
2019-02-24 14:20:00+00:00,358.0,354.0,8.42,9.19,,47.59359,-54.27349
2019-02-24 14:30:00+00:00,0.0,0.0,8.19,10.09,,47.59359,-54.27349
2019-02-24 14:40:00+00:00,331.0,341.0,9.55,11.35,,47.59359,-54.27349
2019-02-24 14:50:00+00:00,343.0,338.0,9.7,10.73,,47.59359,-54.27349
2019-02-24 15:00:00+00:00,353.0,350.0,10.25,11.53,,47.59359,-54.27349
2019-02-24 15:10:00+00:00,347.0,351.0,10.1,11.77,,47.59359,-54.27349
2019-02-24 15:20:00+00:00,336.0,333.0,9.56,10.62,,47.59359,-54.27349
2019-02-24 15:30:00+00:00,352.0,350.0,10.47,12.42,,47.59359,-54.27349
2019-02-24 15:40:00+00:00,332.0,341.0,7.53,9.67,,47.59359,-54.27349
2019-02-24 15:50:00+00:00,356.0,349.0,10.91,12.24,,47.59359,-54.27349
2019-02-24 16:00:00+00:00,356.0,0.0,10.93,12.64,,47.59359,-54.27349
2019-02-24 16:10:00+00:00,349.0,345.0,11.14,13.14,,47.59359,-54.27349
2019-02-24 16:20:00+00:00,344.0,349.0,9.78,11.0,,47.59359,-54.27349
2019-02-24 16:30:00+00:00,352.0,357.0,8.96,11.15,,47.59359,-54.27349
2019-02-24 16:40:00+00:00,330.0,322.0,8.89,11.03,,47.59359,-54.27349
2019-02-24 16:50:00+00:00,334.0,336.0,9.36,10.68,,47.59359,-54.27349
2019-02-24 17:00:00+00:00,327.0,329.0,7.71,8.6,,47.59359,-54.27349
2019-02-24 17:10:00+00:00,347.0,345.0,10.93,12.9,,47.59359,-54.27349
2019-02-24 17:20:00+00:00,336.0,333.0,8.88,10.1,,47.59359,-54.27349
2019-02-24 17:30:00+00:00,359.0,3.0,10.22,11.62,,47.59359,-54.27349
2019-02-24 17:40:00+00:00,340.0,341.0,9.54,10.69,,47.59359,-54.27349
2019-02-24 17:50:00+00:00,353.0,351.0,11.53,13.35,,47.59359,-54.27349
2019-02-24 18:00:00+00:00,357.0,5.0,7.76,9.62,,47.59359,-54.27349
2019-02-24 18:10:00+00:00,355.0,351.0,9.67,10.96,,47.59359,-54.27349
2019-02-24 18:20:00+00:00,339.0,343.0,9.98,11.27,,47.59359,-54.27349
2019-02-24 18:30:00+00:00,352.0,0.0,8.35,9.86,,47.59359,-54.27349
2019-02-24 18:40:00+00:00,341.0,344.0,7.27,8.22,,47.59359,-54.27349
2019-02-24 18:50:00+00:00,345.0,349.0,7.41,8.46,,47.59359,-54.27349
2019-02-24 19:00:00+00:00,334.0,332.0,9.7,10.83,,47.59359,-54.27349
2019-02-24 19:10:00+00:00,353.0,356.0,9.43,13.69,,47.59359,-54.27349
2019-02-24 19:20:00+00:00,3.0,2.0,6.81,8.61,,47.59359,-54.27349
2019-02-24 19:30:00+00:00,351.0,3.0,8.29,10.11,,47.59359,-54.27349
2019-02-24 19:40:00+00:00,331.0,334.0,8.28,10.32,,47.59359,-54.27349
2019-02-24 19:50:00+00:00,357.0,357.0,7.92,9.57,,47.59359,-54.27349
2019-02-24 20:00:00+00:00,357.0,349.0,9.82,11.39,,47.59359,-54.27349
2019-02-24 20:10:00+00:00,349.0,349.0,7.33,8.54,,47.59359,-54.27349
2019-02-24 20:20:00+00:00,347.0,348.0,8.32,10.25,,47.59359,-54.27349
2019-02-24 20:30:00+00:00,344.0,343.0,7.66,8.68,,47.59359,-54.27349
2019-02-24 20:40:00+00:00,340.0,342.0,8.04,9.48,,47.59359,-54.27349
2019-02-24 20:50:00+00:00,5.0,3.0,6.75,7.76,,47.59359,-54.27349
2019-02-24 21:00:00+00:00,337.0,339.0,5.31,6.71,,47.59359,-54.27349
2019-02-24 21:10:00+00:00,329.0,328.0,6.92,7.47,,47.59359,-54.27349
2019-02-24 21:20:00+00:00,341.0,341.0,7.6,8.85,,47.59359,-54.27349
2019-02-24 21:30:00+00:00,334.0,333.0,6.58,7.54,,47.59359,-54.27349
2019-02-24 21:40:00+00:00,335.0,338.0,5.73,6.5,,47.59359,-54.27349
2019-02-24 21:50:00+00:00,332.0,325.0,7.54,8.59,,47.59359,-54.27349
2019-02-24 22:00:00+00:00,333.0,326.0,5.95,7.78,,47.59359,-54.27349
2019-02-24 22:10:00+00:00,333.0,324.0,5.31,6.7,,47.59359,-54.27349
2019-02-24 22:20:00+00:00,328.0,330.0,5.46,6.32,,47.59359,-54.27349
2019-02-24 22:30:00+00:00,323.0,331.0,5.92,6.93,,47.59359,-54.27349
2019-02-24 22:40:00+00:00,315.0,309.0,5.23,6.31,,47.59359,-54.27349
2019-02-24 22:50:00+00:00,326.0,328.0,5.52,6.55,,47.59359,-54.27349
2019-02-24 23:00:00+00:00,334.0,340.0,5.87,7.55,,47.59359,-54.27349
2019-02-24 23:10:00+00:00,337.0,335.0,5.48,6.53,,47.59359,-54.27349
2019-02-24 23:20:00+00:00,325.0,331.0,5.2,6.02,,47.59359,-54.27349
2019-02-24 23:30:00+00:00,341.0,342.0,5.87,6.99,,47.59359,-54.27349
2019-02-24 23:40:00+00:00,341.0,339.0,5.59,6.46,,47.59359,-54.27349
2019-02-24 23:50:00+00:00,337.0,333.0,5.21,5.8,,47.59359,-54.27349
